Time,TemperatureF,DewpointF,PressureIn,WindDirection,WindDirectionDegrees,WindSpeedMPH,WindSpeedGustMPH,Humidity,HourlyPrecipIn,Conditions,Clouds,dailyrainin,SoftwareType,DateUTC
2013-08-08 00:03:00,69.1,68.5,29.86,South,171,1.0,1.0,98,0.00,,---,0.00,VWS V14.00,2013-08-08 05:03:00,
2013-08-08 00:08:00,69.1,68.5,29.85,South,171,0.0,0.0,98,0.00,,---,0.00,VWS V14.00,2013-08-08 05:08:00,
2013-08-08 00:13:00,68.9,68.3,29.85,South,171,0.0,0.0,98,0.00,,---,0.00,VWS V14.00,2013-08-08 05:13:00,
2013-08-08 00:18:00,68.4,67.8,29.85,South,172,0.0,0.0,98,0.00,,---,0.00,VWS V14.00,2013-08-08 05:18:00,
2013-08-08 00:24:00,67.8,67.2,29.86,South,171,0.0,0.0,98,0.00,,---,0.00,VWS V14.00,2013-08-08 05:24:00,
2013-08-08 00:29:00,67.3,66.7,29.86,South,172,0.0,0.0,98,0.00,,---,0.00,VWS V14.00,2013-08-08 05:29:00,
2013-08-08 00:34:00,67.1,66.8,29.86,South,171,0.0,0.0,99,0.00,,---,0.00,VWS V14.00,2013-08-08 05:34:00,
2013-08-08 00:39:00,67.6,67.3,29.86,South,171,0.0,0.0,99,0.00,,---,0.00,VWS V14.00,2013-08-08 05:39:00,
2013-08-08 00:44:00,67.9,67.6,29.86,South,171,0.0,0.0,99,0.00,,---,0.00,VWS V14.00,2013-08-08 05:44:00,
2013-08-08 00:49:00,68.1,67.8,29.86,South,171,0.0,0.0,99,0.00,,---,0.00,VWS V14.00,2013-08-08 05:49:00,
2013-08-08 00:54:00,68.1,67.8,29.86,South,171,0.0,0.0,99,0.00,,---,0.00,VWS V14.00,2013-08-08 05:54:00,
2013-08-08 00:59:00,68.3,68.0,29.86,South,171,0.0,0.0,99,0.00,,---,0.00,VWS V14.00,2013-08-08 05:59:00,
2013-08-08 01:05:00,68.4,68.1,29.86,South,171,0.0,0.0,99,0.00,,---,0.00,VWS V14.00,2013-08-08 06:05:00,
2013-08-08 01:10:00,68.4,68.1,29.86,South,171,0.0,0.0,99,0.00,,---,0.00,VWS V14.00,2013-08-08 06:10:00,
2013-08-08 01:15:00,68.6,68.3,29.86,South,171,1.0,2.0,99,0.00,,---,0.00,VWS V14.00,2013-08-08 06:15:00,
2013-08-08 01:20:00,68.8,68.5,29.86,South,171,3.0,3.0,99,0.00,,---,0.00,VWS V14.00,2013-08-08 06:20:00,
2013-08-08 01:25:00,68.8,68.5,29.85,South,171,1.0,3.0,99,0.00,,---,0.00,VWS V14.00,2013-08-08 06:25:00,
2013-08-08 01:30:00,68.8,68.5,29.85,South,171,2.0,2.0,99,0.00,,---,0.00,VWS V14.00,2013-08-08 06:30:00,
2013-08-08 01:35:00,68.8,68.5,29.85,South,171,2.0,3.0,99,0.00,,---,0.00,VWS V14.00,2013-08-08 06:35:00,
2013-08-08 01:40:00,68.6,68.3,29.86,South,171,3.0,4.0,99,0.00,,---,0.00,VWS V14.00,2013-08-08 06:40:00,
2013-08-08 01:45:00,68.8,68.5,29.86,South,171,3.0,5.0,99,0.00,,---,0.00,VWS V14.00,2013-08-08 06:45:00,
2013-08-08 01:50:00,68.8,68.5,29.86,South,171,3.0,4.0,99,0.00,,---,0.00,VWS V14.00,2013-08-08 06:50:00,
2013-08-08 01:56:00,68.9,68.6,29.86,South,171,4.0,5.0,99,0.00,,---,0.00,VWS V14.00,2013-08-08 06:56:00,
2013-08-08 02:01:00,68.9,68.6,29.86,South,171,3.0,4.0,99,0.00,,---,0.00,VWS V14.00,2013-08-08 07:01:00,
2013-08-08 02:06:00,68.9,68.6,29.86,South,171,2.0,5.0,99,0.00,,---,0.00,VWS V14.00,2013-08-08 07:06:00,
2013-08-08 02:11:00,69.1,68.8,29.85,South,171,2.0,3.0,99,0.00,,---,0.00,VWS V14.00,2013-08-08 07:11:00,
2013-08-08 02:16:00,69.1,68.8,29.85,South,171,3.0,5.0,99,0.00,,---,0.00,VWS V14.00,2013-08-08 07:16:00,
2013-08-08 02:21:00,69.3,69.0,29.85,South,171,1.0,5.0,99,0.00,,---,0.00,VWS V14.00,2013-08-08 07:21:00,
2013-08-08 02:26:00,69.3,69.0,29.85,South,171,3.0,4.0,99,0.00,,---,0.00,VWS V14.00,2013-08-08 07:26:00,
2013-08-08 02:31:00,69.3,69.0,29.85,South,171,4.0,4.0,99,0.00,,---,0.00,VWS V14.00,2013-08-08 07:31:00,
2013-08-08 02:37:00,69.3,69.0,29.85,South,171,4.0,5.0,99,0.00,,---,0.00,VWS V14.00,2013-08-08 07:37:00,
2013-08-08 02:42:00,69.3,69.0,29.85,South,171,4.0,4.0,99,0.00,,---,0.00,VWS V14.00,2013-08-08 07:42:00,
2013-08-08 02:47:00,69.3,69.0,29.85,South,171,4.0,5.0,99,0.00,,---,0.00,VWS V14.00,2013-08-08 07:47:00,
2013-08-08 02:52:00,69.3,69.0,29.85,South,171,5.0,5.0,99,0.00,,---,0.00,VWS V14.00,2013-08-08 07:52:00,
2013-08-08 02:57:00,69.3,69.0,29.85,South,171,3.0,4.0,99,0.00,,---,0.00,VWS V14.00,2013-08-08 07:57:00,
2013-08-08 03:02:00,69.3,69.0,29.85,South,171,4.0,4.0,99,0.00,,---,0.00,VWS V14.00,2013-08-08 08:02:00,
2013-08-08 03:07:00,69.3,69.0,29.85,South,171,3.0,5.0,99,0.00,,---,0.00,VWS V14.00,2013-08-08 08:07:00,
2013-08-08 03:13:00,69.3,69.0,29.85,South,171,3.0,5.0,99,0.00,,---,0.00,VWS V14.00,2013-08-08 08:13:00,
2013-08-08 03:18:00,69.1,68.8,29.85,South,171,4.0,5.0,99,0.00,,---,0.00,VWS V14.00,2013-08-08 08:18:00,
2013-08-08 03:23:00,69.1,68.8,29.85,South,171,2.0,4.0,99,0.00,,---,0.00,VWS V14.00,2013-08-08 08:23:00,
2013-08-08 03:28:00,69.1,68.8,29.85,South,171,2.0,3.0,99,0.00,,---,0.00,VWS V14.00,2013-08-08 08:28:00,
2013-08-08 03:33:00,68.9,68.6,29.85,South,171,2.0,5.0,99,0.00,,---,0.00,VWS V14.00,2013-08-08 08:33:00,
2013-08-08 03:38:00,68.6,68.3,29.86,South,171,3.0,4.0,99,0.00,,---,0.00,VWS V14.00,2013-08-08 08:38:00,
2013-08-08 03:43:00,68.4,68.1,29.86,South,171,2.0,4.0,99,0.00,,---,0.00,VWS V14.00,2013-08-08 08:43:00,
2013-08-08 03:48:00,68.1,67.8,29.86,South,171,4.0,4.0,99,0.00,,---,0.00,VWS V14.00,2013-08-08 08:48:00,
2013-08-08 03:53:00,67.8,67.5,29.86,South,171,4.0,5.0,99,0.00,,---,0.00,VWS V14.00,2013-08-08 08:53:00,
2013-08-08 03:58:00,67.6,67.3,29.86,South,171,3.0,4.0,99,0.00,,---,0.00,VWS V14.00,2013-08-08 08:58:00,
2013-08-08 04:03:00,67.4,67.1,29.86,South,171,2.0,5.0,99,0.00,,---,0.00,VWS V14.00,2013-08-08 09:03:00,
2013-08-08 04:08:00,67.3,67.0,29.86,South,171,5.0,6.0,99,0.00,,---,0.00,VWS V14.00,2013-08-08 09:08:00,
2013-08-08 04:13:00,66.9,66.6,29.86,South,171,4.0,5.0,99,0.00,,---,0.00,VWS V14.00,2013-08-08 09:13:00,
2013-08-08 04:19:00,66.8,66.5,29.86,South,171,3.0,5.0,99,0.00,,---,0.00,VWS V14.00,2013-08-08 09:19:00,
2013-08-08 04:24:00,66.6,66.3,29.85,South,171,1.0,4.0,99,0.00,,---,0.00,VWS V14.00,2013-08-08 09:24:00,
2013-08-08 04:29:00,66.4,66.1,29.85,South,171,2.0,4.0,99,0.00,,---,0.00,VWS V14.00,2013-08-08 09:29:00,
2013-08-08 04:34:00,66.3,66.0,29.85,South,171,5.0,5.0,99,0.00,,---,0.00,VWS V14.00,2013-08-08 09:34:00,
2013-08-08 04:39:00,66.1,65.8,29.86,South,171,3.0,4.0,99,0.00,,---,0.00,VWS V14.00,2013-08-08 09:39:00,
2013-08-08 04:44:00,66.1,65.8,29.86,South,171,4.0,5.0,99,0.00,,---,0.00,VWS V14.00,2013-08-08 09:44:00,
2013-08-08 04:49:00,66.1,65.8,29.86,South,171,4.0,5.0,99,0.00,,---,0.00,VWS V14.00,2013-08-08 09:49:00,
2013-08-08 04:54:00,66.1,65.8,29.85,South,171,0.0,4.0,99,0.00,,---,0.00,VWS V14.00,2013-08-08 09:54:00,
2013-08-08 04:59:00,66.0,65.7,29.85,South,171,2.0,4.0,99,0.00,,---,0.00,VWS V14.00,2013-08-08 09:59:00,
2013-08-08 05:04:00,66.0,65.4,29.85,South,171,2.0,4.0,98,0.00,,---,0.00,VWS V14.00,2013-08-08 10:04:00,
2013-08-08 05:09:00,65.8,65.2,29.85,South,172,4.0,4.0,98,0.00,,---,0.00,VWS V14.00,2013-08-08 10:09:00,
2013-08-08 05:14:00,65.8,65.2,29.85,South,171,3.0,3.0,98,0.00,,---,0.00,VWS V14.00,2013-08-08 10:14:00,
2013-08-08 05:20:00,65.6,65.0,29.85,South,172,2.0,4.0,98,0.00,,---,0.00,VWS V14.00,2013-08-08 10:20:00,
2013-08-08 05:25:00,65.6,65.0,29.86,South,171,2.0,3.0,98,0.00,,---,0.00,VWS V14.00,2013-08-08 10:25:00,
2013-08-08 05:30:00,65.6,65.0,29.86,South,171,3.0,3.0,98,0.00,,---,0.00,VWS V14.00,2013-08-08 10:30:00,
2013-08-08 05:35:00,65.5,64.9,29.86,South,171,0.0,3.0,98,0.00,,---,0.00,VWS V14.00,2013-08-08 10:35:00,
2013-08-08 05:40:00,65.5,64.9,29.86,South,171,2.0,2.0,98,0.00,,---,0.00,VWS V14.00,2013-08-08 10:40:00,
2013-08-08 05:45:00,65.3,64.7,29.86,South,171,4.0,4.0,98,0.00,,---,0.00,VWS V14.00,2013-08-08 10:45:00,
2013-08-08 05:50:00,65.3,64.7,29.86,South,171,2.0,4.0,98,0.00,,---,0.00,VWS V14.00,2013-08-08 10:50:00,
2013-08-08 05:55:00,65.3,64.7,29.86,South,171,2.0,3.0,98,0.00,,---,0.00,VWS V14.00,2013-08-08 10:55:00,
2013-08-08 06:00:00,65.3,64.7,29.86,South,171,4.0,4.0,98,0.00,,---,0.00,VWS V14.00,2013-08-08 11:00:00,
2013-08-08 06:05:00,65.3,64.7,29.86,South,171,5.0,5.0,98,0.00,,---,0.00,VWS V14.00,2013-08-08 11:05:00,
2013-08-08 06:10:00,65.3,64.7,29.86,South,171,2.0,4.0,98,0.00,,---,0.00,VWS V14.00,2013-08-08 11:10:00,
2013-08-08 06:15:00,65.3,64.7,29.86,South,171,1.0,4.0,98,0.00,,---,0.00,VWS V14.00,2013-08-08 11:15:00,
2013-08-08 06:20:00,65.3,64.7,29.86,South,171,2.0,3.0,98,0.00,,---,0.00,VWS V14.00,2013-08-08 11:20:00,
2013-08-08 06:25:00,65.3,64.7,29.87,South,171,1.0,4.0,98,0.00,,---,0.00,VWS V14.00,2013-08-08 11:25:00,
2013-08-08 06:30:00,65.3,64.7,29.87,South,171,3.0,5.0,98,0.00,,---,0.00,VWS V14.00,2013-08-08 11:30:00,
2013-08-08 06:35:00,65.5,64.9,29.87,South,171,2.0,4.0,98,0.00,,---,0.00,VWS V14.00,2013-08-08 11:35:00,
2013-08-08 06:40:00,65.5,64.9,29.87,South,171,3.0,4.0,98,0.00,,---,0.00,VWS V14.00,2013-08-08 11:40:00,
2013-08-08 06:45:00,65.6,65.0,29.87,South,171,1.0,1.0,98,0.00,,---,0.00,VWS V14.00,2013-08-08 11:45:00,
2013-08-08 06:50:00,65.6,65.0,29.87,South,171,2.0,4.0,98,0.00,,---,0.00,VWS V14.00,2013-08-08 11:50:00,
2013-08-08 06:56:00,65.6,65.0,29.88,South,171,2.0,3.0,98,0.00,,---,0.00,VWS V14.00,2013-08-08 11:56:00,
2013-08-08 07:01:00,65.6,65.0,29.88,South,171,3.0,3.0,98,0.00,,---,0.00,VWS V14.00,2013-08-08 12:01:00,
2013-08-08 07:06:00,65.6,65.0,29.88,South,171,2.0,3.0,98,0.00,,---,0.00,VWS V14.00,2013-08-08 12:06:00,
2013-08-08 07:11:00,65.6,65.0,29.89,South,171,1.0,3.0,98,0.00,,---,0.00,VWS V14.00,2013-08-08 12:11:00,
2013-08-08 07:16:00,65.6,65.0,29.89,South,171,2.0,4.0,98,0.00,,---,0.00,VWS V14.00,2013-08-08 12:16:00,
2013-08-08 07:21:00,65.6,65.0,29.89,South,171,2.0,3.0,98,0.00,,---,0.00,VWS V14.00,2013-08-08 12:21:00,
2013-08-08 07:26:00,65.6,65.0,29.90,South,171,1.0,2.0,98,0.00,,---,0.00,VWS V14.00,2013-08-08 12:26:00,
2013-08-08 07:31:00,65.8,65.2,29.90,South,171,4.0,4.0,98,0.00,,---,0.00,VWS V14.00,2013-08-08 12:31:00,
2013-08-08 07:36:00,66.0,65.4,29.90,South,171,3.0,4.0,98,0.00,,---,0.00,VWS V14.00,2013-08-08 12:36:00,
2013-08-08 07:42:00,66.1,65.5,29.90,South,171,1.0,1.0,98,0.00,,---,0.00,VWS V14.00,2013-08-08 12:42:00,
2013-08-08 07:47:00,66.3,65.7,29.90,South,171,3.0,3.0,98,0.00,,---,0.00,VWS V14.00,2013-08-08 12:47:00,
2013-08-08 07:52:00,66.4,65.8,29.90,South,171,4.0,5.0,98,0.00,,---,0.00,VWS V14.00,2013-08-08 12:52:00,
2013-08-08 07:57:00,66.6,66.0,29.91,South,171,4.0,4.0,98,0.00,,---,0.00,VWS V14.00,2013-08-08 12:57:00,
2013-08-08 08:02:00,66.9,66.3,29.91,South,171,5.0,5.0,98,0.00,,---,0.00,VWS V14.00,2013-08-08 13:02:00,
2013-08-08 08:07:00,67.1,66.5,29.90,South,171,3.0,6.0,98,0.00,,---,0.00,VWS V14.00,2013-08-08 13:07:00,
2013-08-08 08:12:00,67.3,66.4,29.90,South,171,6.0,6.0,97,0.00,,---,0.00,VWS V14.00,2013-08-08 13:12:00,
2013-08-08 08:18:00,67.6,66.7,29.90,South,171,2.0,4.0,97,0.00,,---,0.00,VWS V14.00,2013-08-08 13:18:00,
2013-08-08 08:23:00,67.9,66.7,29.89,South,171,4.0,5.0,96,0.00,,---,0.00,VWS V14.00,2013-08-08 13:23:00,
2013-08-08 08:28:00,68.1,66.9,29.89,South,171,1.0,5.0,96,0.00,,---,0.00,VWS V14.00,2013-08-08 13:28:00,
2013-08-08 08:33:00,68.3,67.1,29.89,South,171,0.0,0.0,96,0.00,,---,0.00,VWS V14.00,2013-08-08 13:33:00,
2013-08-08 08:38:00,68.9,67.7,29.89,South,171,0.0,0.0,96,0.00,,---,0.00,VWS V14.00,2013-08-08 13:38:00,
2013-08-08 08:43:00,69.4,67.9,29.89,South,171,0.0,0.0,95,0.00,,---,0.00,VWS V14.00,2013-08-08 13:43:00,
2013-08-08 08:48:00,70.3,68.8,29.89,South,171,0.0,0.0,95,0.00,,---,0.00,VWS V14.00,2013-08-08 13:48:00,
2013-08-08 08:53:00,70.9,69.1,29.89,South,171,0.0,0.0,94,0.00,,---,0.00,VWS V14.00,2013-08-08 13:53:00,
2013-08-08 08:58:00,71.5,69.1,29.89,South,171,0.0,2.0,92,0.00,,---,0.00,VWS V14.00,2013-08-08 13:58:00,
2013-08-08 09:03:00,72.0,68.9,29.89,South,171,0.0,0.0,90,0.00,,---,0.00,VWS V14.00,2013-08-08 14:03:00,
2013-08-08 09:08:00,72.3,68.2,29.89,South,171,1.0,4.0,87,0.00,,---,0.00,VWS V14.00,2013-08-08 14:08:00,
2013-08-08 09:13:00,72.7,68.3,29.89,South,171,0.0,0.0,86,0.00,,---,0.00,VWS V14.00,2013-08-08 14:13:00,
2013-08-08 09:18:00,73.2,68.4,29.89,South,171,0.0,3.0,85,0.00,,---,0.00,VWS V14.00,2013-08-08 14:18:00,
2013-08-08 09:23:00,73.9,68.4,29.90,South,171,0.0,0.0,83,0.00,,---,0.00,VWS V14.00,2013-08-08 14:23:00,
2013-08-08 09:28:00,74.4,68.2,29.90,South,171,0.0,2.0,81,0.00,,---,0.00,VWS V14.00,2013-08-08 14:28:00,
2013-08-08 09:33:00,74.7,67.8,29.90,South,171,0.0,2.0,79,0.00,,---,0.00,VWS V14.00,2013-08-08 14:33:00,
2013-08-08 09:38:00,74.9,67.6,29.91,South,171,0.0,0.0,78,0.00,,---,0.00,VWS V14.00,2013-08-08 14:38:00,
2013-08-08 09:43:00,74.7,67.4,29.91,South,171,2.0,2.0,78,0.00,,---,0.00,VWS V14.00,2013-08-08 14:43:00,
2013-08-08 09:48:00,74.7,67.4,29.91,South,171,0.0,2.0,78,0.00,,---,0.00,VWS V14.00,2013-08-08 14:48:00,
2013-08-08 09:53:00,74.7,67.0,29.91,South,171,1.0,5.0,77,0.00,,---,0.00,VWS V14.00,2013-08-08 14:53:00,
2013-08-08 09:58:00,74.9,67.2,29.91,South,171,4.0,4.0,77,0.00,,---,0.00,VWS V14.00,2013-08-08 14:58:00,
2013-08-08 10:03:00,75.4,67.7,29.91,South,171,2.0,2.0,77,0.00,,---,0.00,VWS V14.00,2013-08-08 15:03:00,
2013-08-08 10:08:00,75.8,68.5,29.91,South,171,0.0,6.0,78,0.00,,---,0.00,VWS V14.00,2013-08-08 15:08:00,
2013-08-08 10:14:00,76.3,68.2,29.91,South,171,1.0,4.0,76,0.00,,---,0.00,VWS V14.00,2013-08-08 15:14:00,
2013-08-08 10:19:00,76.3,67.4,29.91,South,171,4.0,5.0,74,0.00,,---,0.00,VWS V14.00,2013-08-08 15:19:00,
2013-08-08 10:24:00,76.1,66.4,29.92,South,171,4.0,6.0,72,0.00,,---,0.00,VWS V14.00,2013-08-08 15:24:00,
2013-08-08 10:29:00,76.0,67.5,29.92,South,171,0.0,1.0,75,0.00,,---,0.00,VWS V14.00,2013-08-08 15:29:00,
2013-08-08 10:34:00,76.3,68.2,29.92,South,171,4.0,4.0,76,0.00,,---,0.00,VWS V14.00,2013-08-08 15:34:00,
2013-08-08 10:39:00,76.3,68.2,29.92,South,171,0.0,0.0,76,0.00,,---,0.00,VWS V14.00,2013-08-08 15:39:00,
2013-08-08 10:44:00,76.8,68.7,29.92,South,171,3.0,3.0,76,0.00,,---,0.00,VWS V14.00,2013-08-08 15:44:00,
2013-08-08 10:49:00,77.4,69.2,29.92,South,171,0.0,0.0,76,0.00,,---,0.00,VWS V14.00,2013-08-08 15:49:00,
2013-08-08 10:54:00,77.7,69.2,29.92,South,171,0.0,0.0,75,0.00,,---,0.00,VWS V14.00,2013-08-08 15:54:00,
2013-08-08 10:59:00,78.1,68.3,29.92,South,171,0.0,1.0,72,0.00,,---,0.00,VWS V14.00,2013-08-08 15:59:00,
2013-08-08 11:04:00,78.5,69.5,29.92,South,171,0.0,0.0,74,0.00,,---,0.00,VWS V14.00,2013-08-08 16:04:00,
2013-08-08 11:09:00,78.5,68.7,29.92,South,171,1.0,3.0,72,0.00,,---,0.00,VWS V14.00,2013-08-08 16:09:00,
2013-08-08 11:14:00,78.6,69.6,29.92,South,171,0.0,0.0,74,0.00,,---,0.00,VWS V14.00,2013-08-08 16:14:00,
2013-08-08 11:19:00,79.0,69.2,29.92,South,171,0.0,4.0,72,0.00,,---,0.00,VWS V14.00,2013-08-08 16:19:00,
2013-08-08 11:24:00,79.2,70.2,29.91,South,171,0.0,0.0,74,0.00,,---,0.00,VWS V14.00,2013-08-08 16:24:00,
2013-08-08 11:30:00,78.8,68.6,29.91,South,171,1.0,3.0,71,0.00,,---,0.00,VWS V14.00,2013-08-08 16:30:00,
2013-08-08 11:35:00,78.6,69.6,29.91,South,171,1.0,1.0,74,0.00,,---,0.00,VWS V14.00,2013-08-08 16:35:00,
2013-08-08 11:40:00,78.8,70.6,29.90,South,171,2.0,4.0,76,0.00,,---,0.00,VWS V14.00,2013-08-08 16:40:00,
2013-08-08 11:45:00,78.8,69.8,29.90,South,171,0.0,5.0,74,0.00,,---,0.00,VWS V14.00,2013-08-08 16:45:00,
2013-08-08 11:50:00,78.8,69.8,29.90,South,171,0.0,0.0,74,0.00,,---,0.00,VWS V14.00,2013-08-08 16:50:00,
2013-08-08 11:55:00,78.6,69.6,29.90,South,171,2.0,3.0,74,0.00,,---,0.00,VWS V14.00,2013-08-08 16:55:00,
2013-08-08 12:00:00,78.5,68.7,29.90,South,171,3.0,3.0,72,0.00,,---,0.00,VWS V14.00,2013-08-08 17:00:00,
2013-08-08 12:05:00,78.6,70.8,29.90,South,171,0.0,0.0,77,0.00,,---,0.00,VWS V14.00,2013-08-08 17:05:00,
2013-08-08 12:10:00,79.0,70.4,29.90,South,171,0.0,0.0,75,0.00,,---,0.00,VWS V14.00,2013-08-08 17:10:00,
2013-08-08 12:15:00,79.6,71.0,29.90,South,171,0.0,0.0,75,0.00,,---,0.00,VWS V14.00,2013-08-08 17:15:00,
2013-08-08 12:21:00,79.8,70.8,29.90,South,171,0.0,0.0,74,0.00,,---,0.00,VWS V14.00,2013-08-08 17:21:00,
2013-08-08 12:25:00,79.6,70.2,29.90,South,171,0.0,0.0,73,0.00,,---,0.00,VWS V14.00,2013-08-08 17:25:00,
2013-08-08 12:31:00,79.4,70.0,29.90,South,171,0.0,0.0,73,0.00,,---,0.00,VWS V14.00,2013-08-08 17:31:00,
2013-08-08 12:36:00,79.4,70.4,29.90,South,171,0.0,0.0,74,0.00,,---,0.00,VWS V14.00,2013-08-08 17:36:00,
2013-08-08 12:41:00,79.6,71.0,29.89,South,171,0.0,0.0,75,0.00,,---,0.00,VWS V14.00,2013-08-08 17:41:00,
2013-08-08 12:46:00,80.1,70.7,29.89,South,171,0.0,4.0,73,0.00,,---,0.00,VWS V14.00,2013-08-08 17:46:00,
2013-08-08 12:51:00,80.3,70.1,29.89,South,171,1.0,4.0,71,0.00,,---,0.00,VWS V14.00,2013-08-08 17:51:00,
2013-08-08 12:56:00,80.5,71.5,29.89,South,171,0.0,0.0,74,0.00,,---,0.00,VWS V14.00,2013-08-08 17:56:00,
2013-08-08 13:01:00,80.5,70.2,29.89,South,171,1.0,1.0,71,0.00,,---,0.00,VWS V14.00,2013-08-08 18:01:00,
2013-08-08 13:06:00,80.3,70.1,29.89,South,171,0.0,0.0,71,0.00,,---,0.00,VWS V14.00,2013-08-08 18:06:00,
2013-08-08 13:11:00,80.1,70.7,29.89,South,171,0.0,0.0,73,0.00,,---,0.00,VWS V14.00,2013-08-08 18:11:00,
2013-08-08 13:16:00,80.3,71.3,29.89,South,171,0.0,0.0,74,0.00,,---,0.00,VWS V14.00,2013-08-08 18:16:00,
2013-08-08 13:21:00,79.8,71.2,29.89,South,171,0.0,0.0,75,0.00,,---,0.00,VWS V14.00,2013-08-08 18:21:00,
2013-08-08 13:26:00,79.9,71.3,29.89,South,171,0.0,0.0,75,0.00,,---,0.00,VWS V14.00,2013-08-08 18:26:00,
2013-08-08 13:31:00,79.6,70.2,29.89,South,171,0.0,3.0,73,0.00,,---,0.00,VWS V14.00,2013-08-08 18:31:00,
2013-08-08 13:37:00,79.8,71.2,29.89,South,171,0.0,0.0,75,0.00,,---,0.00,VWS V14.00,2013-08-08 18:37:00,
2013-08-08 13:42:00,80.1,71.5,29.88,South,171,0.0,0.0,75,0.00,,---,0.00,VWS V14.00,2013-08-08 18:42:00,
2013-08-08 13:47:00,80.5,71.5,29.88,South,171,0.0,0.0,74,0.00,,---,0.00,VWS V14.00,2013-08-08 18:47:00,
2013-08-08 13:52:00,80.9,71.8,29.88,South,171,0.0,0.0,74,0.00,,---,0.00,VWS V14.00,2013-08-08 18:52:00,
2013-08-08 13:57:00,81.1,72.0,29.88,South,171,0.0,0.0,74,0.00,,---,0.00,VWS V14.00,2013-08-08 18:57:00,
2013-08-08 14:02:00,81.1,70.8,29.88,South,171,0.0,1.0,71,0.00,,---,0.00,VWS V14.00,2013-08-08 19:02:00,
2013-08-08 14:07:00,80.9,70.6,29.88,South,171,0.0,0.0,71,0.00,,---,0.00,VWS V14.00,2013-08-08 19:07:00,
2013-08-08 14:12:00,80.7,70.8,29.88,South,171,0.0,0.0,72,0.00,,---,0.00,VWS V14.00,2013-08-08 19:12:00,
2013-08-08 14:17:00,80.5,71.1,29.88,South,171,0.0,0.0,73,0.00,,---,0.00,VWS V14.00,2013-08-08 19:17:00,
2013-08-08 14:23:00,80.3,70.5,29.88,South,171,0.0,0.0,72,0.00,,---,0.00,VWS V14.00,2013-08-08 19:23:00,
2013-08-08 14:28:00,79.9,69.7,29.88,South,171,0.0,0.0,71,0.00,,---,0.00,VWS V14.00,2013-08-08 19:28:00,
2013-08-08 14:33:00,79.6,69.4,29.88,South,171,0.0,1.0,71,0.00,,---,0.00,VWS V14.00,2013-08-08 19:33:00,
2013-08-08 14:38:00,79.4,70.0,29.87,South,171,0.0,0.0,73,0.00,,---,0.00,VWS V14.00,2013-08-08 19:38:00,
2013-08-08 14:43:00,79.2,69.4,29.87,South,171,3.0,5.0,72,0.00,,---,0.00,VWS V14.00,2013-08-08 19:43:00,
2013-08-08 14:48:00,78.8,69.0,29.87,South,171,0.0,0.0,72,0.00,,---,0.00,VWS V14.00,2013-08-08 19:48:00,
2013-08-08 14:53:00,78.6,69.2,29.87,South,171,0.0,0.0,73,0.00,,---,0.00,VWS V14.00,2013-08-08 19:53:00,
2013-08-08 14:58:00,78.6,69.2,29.87,South,171,4.0,4.0,73,0.00,,---,0.00,VWS V14.00,2013-08-08 19:58:00,
2013-08-08 15:03:00,78.5,68.7,29.87,South,171,4.0,5.0,72,0.00,,---,0.00,VWS V14.00,2013-08-08 20:03:00,
2013-08-08 15:08:00,78.3,68.5,29.87,South,171,0.0,3.0,72,0.00,,---,0.00,VWS V14.00,2013-08-08 20:08:00,
2013-08-08 15:13:00,78.3,68.5,29.87,South,171,2.0,2.0,72,0.00,,---,0.00,VWS V14.00,2013-08-08 20:13:00,
2013-08-08 15:18:00,78.1,67.9,29.87,South,171,4.0,5.0,71,0.00,,---,0.00,VWS V14.00,2013-08-08 20:18:00,
2013-08-08 15:23:00,78.1,68.8,29.87,South,171,6.0,6.0,73,0.00,,---,0.00,VWS V14.00,2013-08-08 20:23:00,
2013-08-08 15:28:00,77.9,68.6,29.87,South,171,3.0,5.0,73,0.00,,---,0.00,VWS V14.00,2013-08-08 20:28:00,
2013-08-08 15:33:00,77.9,68.6,29.87,South,171,3.0,3.0,73,0.00,,---,0.00,VWS V14.00,2013-08-08 20:33:00,
2013-08-08 15:38:00,78.3,68.9,29.86,South,171,4.0,6.0,73,0.00,,---,0.00,VWS V14.00,2013-08-08 20:38:00,
2013-08-08 15:44:00,78.5,68.3,29.86,South,171,4.0,6.0,71,0.00,,---,0.00,VWS V14.00,2013-08-08 20:44:00,
2013-08-08 15:49:00,78.5,68.3,29.86,South,171,3.0,6.0,71,0.00,,---,0.00,VWS V14.00,2013-08-08 20:49:00,
2013-08-08 15:54:00,78.1,67.5,29.86,South,171,3.0,5.0,70,0.00,,---,0.00,VWS V14.00,2013-08-08 20:54:00,
2013-08-08 15:59:00,77.9,67.8,29.86,South,171,3.0,4.0,71,0.00,,---,0.00,VWS V14.00,2013-08-08 20:59:00,
2013-08-08 16:04:00,77.9,67.8,29.86,South,171,4.0,6.0,71,0.00,,---,0.00,VWS V14.00,2013-08-08 21:04:00,
2013-08-08 16:09:00,78.1,68.3,29.86,South,171,5.0,5.0,72,0.00,,---,0.00,VWS V14.00,2013-08-08 21:09:00,
2013-08-08 16:14:00,78.1,67.9,29.86,South,171,4.0,7.0,71,0.00,,---,0.00,VWS V14.00,2013-08-08 21:14:00,
2013-08-08 16:19:00,78.3,67.7,29.86,South,171,3.0,5.0,70,0.00,,---,0.00,VWS V14.00,2013-08-08 21:19:00,
2013-08-08 16:25:00,78.5,68.3,29.86,South,171,1.0,4.0,71,0.00,,---,0.00,VWS V14.00,2013-08-08 21:25:00,
2013-08-08 16:30:00,78.6,68.0,29.86,South,171,2.0,4.0,70,0.00,,---,0.00,VWS V14.00,2013-08-08 21:30:00,
2013-08-08 16:35:00,78.3,66.9,29.86,South,171,3.0,6.0,68,0.00,,---,0.00,VWS V14.00,2013-08-08 21:35:00,
2013-08-08 16:40:00,78.3,67.7,29.87,South,171,1.0,1.0,70,0.00,,---,0.00,VWS V14.00,2013-08-08 21:40:00,
2013-08-08 16:45:00,78.1,67.5,29.87,South,171,0.0,2.0,70,0.00,,---,0.00,VWS V14.00,2013-08-08 21:45:00,
2013-08-08 16:50:00,78.1,67.5,29.87,South,171,1.0,3.0,70,0.00,,---,0.00,VWS V14.00,2013-08-08 21:50:00,
2013-08-08 16:55:00,78.1,67.9,29.88,South,171,0.0,0.0,71,0.00,,---,0.00,VWS V14.00,2013-08-08 21:55:00,
2013-08-08 17:00:00,78.1,67.9,29.88,South,171,0.0,0.0,71,0.00,,---,0.00,VWS V14.00,2013-08-08 22:00:00,
2013-08-08 17:06:00,78.3,68.1,29.88,South,171,0.0,0.0,71,0.00,,---,0.00,VWS V14.00,2013-08-08 22:06:00,
2013-08-08 17:11:00,78.3,68.5,29.87,South,171,0.0,0.0,72,0.00,,---,0.00,VWS V14.00,2013-08-08 22:11:00,
2013-08-08 17:16:00,78.5,68.3,29.87,South,171,0.0,1.0,71,0.00,,---,0.00,VWS V14.00,2013-08-08 22:16:00,
2013-08-08 17:21:00,78.5,67.9,29.87,South,171,3.0,4.0,70,0.00,,---,0.00,VWS V14.00,2013-08-08 22:21:00,
2013-08-08 17:26:00,78.1,67.5,29.88,South,171,1.0,3.0,70,0.00,,---,0.00,VWS V14.00,2013-08-08 22:26:00,
2013-08-08 17:31:00,77.9,67.3,29.88,South,171,1.0,3.0,70,0.00,,---,0.00,VWS V14.00,2013-08-08 22:31:00,
2013-08-08 17:36:00,77.6,66.6,29.88,South,171,3.0,4.0,69,0.00,,---,0.00,VWS V14.00,2013-08-08 22:36:00,
2013-08-08 17:41:00,77.4,66.9,29.88,South,171,1.0,1.0,70,0.00,,---,0.00,VWS V14.00,2013-08-08 22:41:00,
2013-08-08 17:47:00,77.4,67.3,29.88,South,171,0.0,1.0,71,0.00,,---,0.00,VWS V14.00,2013-08-08 22:47:00,
2013-08-08 17:52:00,77.2,67.1,29.88,South,171,0.0,0.0,71,0.00,,---,0.00,VWS V14.00,2013-08-08 22:52:00,
2013-08-08 17:57:00,77.2,67.1,29.89,South,171,0.0,0.0,71,0.00,,---,0.00,VWS V14.00,2013-08-08 22:57:00,
2013-08-08 18:02:00,77.2,67.1,29.89,South,171,0.0,0.0,71,0.00,,---,0.00,VWS V14.00,2013-08-08 23:02:00,
2013-08-08 18:07:00,77.2,67.1,29.89,South,171,2.0,3.0,71,0.00,,---,0.00,VWS V14.00,2013-08-08 23:07:00,
2013-08-08 18:12:00,77.0,66.9,29.89,South,171,0.0,2.0,71,0.00,,---,0.00,VWS V14.00,2013-08-08 23:12:00,
2013-08-08 18:18:00,77.0,66.9,29.89,South,171,0.0,4.0,71,0.00,,---,0.00,VWS V14.00,2013-08-08 23:18:00,
2013-08-08 18:23:00,77.0,66.5,29.89,South,171,1.0,3.0,70,0.00,,---,0.00,VWS V14.00,2013-08-08 23:23:00,
2013-08-08 18:28:00,77.0,66.9,29.89,South,171,0.0,1.0,71,0.00,,---,0.00,VWS V14.00,2013-08-08 23:28:00,
2013-08-08 18:33:00,77.0,66.5,29.89,South,171,2.0,3.0,70,0.00,,---,0.00,VWS V14.00,2013-08-08 23:33:00,
2013-08-08 18:38:00,76.8,66.3,29.89,South,171,0.0,2.0,70,0.00,,---,0.00,VWS V14.00,2013-08-08 23:38:00,
2013-08-08 18:43:00,76.7,65.8,29.89,South,171,0.0,2.0,69,0.00,,---,0.00,VWS V14.00,2013-08-08 23:43:00,
2013-08-08 18:48:00,76.5,65.6,29.89,South,171,0.0,1.0,69,0.00,,---,0.00,VWS V14.00,2013-08-08 23:48:00,
2013-08-08 18:54:00,76.1,65.6,29.89,South,171,1.0,1.0,70,0.00,,---,0.00,VWS V14.00,2013-08-08 23:54:00,
2013-08-08 18:59:00,75.8,65.3,29.89,South,171,0.0,0.0,70,0.00,,---,0.00,VWS V14.00,2013-08-08 23:59:00,
2013-08-08 19:05:00,75.4,65.3,29.89,South,171,0.0,0.0,71,0.00,,---,0.00,VWS V14.00,2013-08-09 00:05:00,
2013-08-08 19:10:00,75.1,65.1,29.89,South,171,0.0,0.0,71,0.00,,---,0.00,VWS V14.00,2013-08-09 00:10:00,
2013-08-08 19:15:00,74.7,65.1,29.89,South,171,0.0,0.0,72,0.00,,---,0.00,VWS V14.00,2013-08-09 00:15:00,
2013-08-08 19:20:00,74.6,65.4,29.89,South,171,0.0,0.0,73,0.00,,---,0.00,VWS V14.00,2013-08-09 00:20:00,
2013-08-08 19:25:00,74.4,65.2,29.89,South,171,0.0,0.0,73,0.00,,---,0.00,VWS V14.00,2013-08-09 00:25:00,
2013-08-08 19:30:00,74.2,65.4,29.89,South,171,0.0,0.0,74,0.00,,---,0.00,VWS V14.00,2013-08-09 00:30:00,
2013-08-08 19:35:00,73.9,65.1,29.89,South,171,0.0,2.0,74,0.00,,---,0.00,VWS V14.00,2013-08-09 00:35:00,
2013-08-08 19:41:00,73.7,64.9,29.90,South,171,3.0,3.0,74,0.00,,---,0.00,VWS V14.00,2013-08-09 00:41:00,
2013-08-08 19:46:00,73.5,64.7,29.90,South,171,2.0,4.0,74,0.00,,---,0.00,VWS V14.00,2013-08-09 00:46:00,
2013-08-08 19:51:00,73.2,64.0,29.90,South,171,5.0,6.0,73,0.00,,---,0.00,VWS V14.00,2013-08-09 00:51:00,
2013-08-08 19:56:00,73.0,63.8,29.90,South,171,3.0,5.0,73,0.00,,---,0.00,VWS V14.00,2013-08-09 00:56:00,
2013-08-08 20:01:00,72.7,63.5,29.90,South,171,3.0,4.0,73,0.00,,---,0.00,VWS V14.00,2013-08-09 01:01:00,
2013-08-08 20:06:00,72.5,63.4,29.90,South,171,2.0,2.0,73,0.00,,---,0.00,VWS V14.00,2013-08-09 01:06:00,
2013-08-08 20:11:00,72.3,62.8,29.90,South,171,4.0,4.0,72,0.00,,---,0.00,VWS V14.00,2013-08-09 01:11:00,
2013-08-08 20:16:00,72.1,62.2,29.90,South,171,4.0,5.0,71,0.00,,---,0.00,VWS V14.00,2013-08-09 01:16:00,
2013-08-08 20:22:00,72.0,62.1,29.90,South,171,3.0,4.0,71,0.00,,---,0.00,VWS V14.00,2013-08-09 01:22:00,
2013-08-08 20:27:00,71.8,61.9,29.89,South,171,2.0,4.0,71,0.00,,---,0.00,VWS V14.00,2013-08-09 01:27:00,
2013-08-08 20:32:00,71.6,61.3,29.89,South,171,2.0,4.0,70,0.00,,---,0.00,VWS V14.00,2013-08-09 01:32:00,
2013-08-08 20:37:00,71.3,61.4,29.89,South,171,3.0,5.0,71,0.00,,---,0.00,VWS V14.00,2013-08-09 01:37:00,
2013-08-08 20:43:00,71.1,61.2,29.89,South,171,3.0,5.0,71,0.00,,---,0.00,VWS V14.00,2013-08-09 01:43:00,
2013-08-08 20:48:00,70.9,60.6,29.89,South,171,3.0,3.0,70,0.00,,---,0.00,VWS V14.00,2013-08-09 01:48:00,
2013-08-08 20:53:00,70.8,60.5,29.91,South,171,3.0,4.0,70,0.00,,---,0.00,VWS V14.00,2013-08-09 01:53:00,
2013-08-08 20:58:00,70.8,60.1,29.91,South,171,3.0,4.0,69,0.00,,---,0.00,VWS V14.00,2013-08-09 01:58:00,
2013-08-08 21:03:00,70.6,60.0,29.91,South,171,4.0,5.0,69,0.00,,---,0.00,VWS V14.00,2013-08-09 02:03:00,
2013-08-08 21:08:00,70.4,59.3,29.91,South,171,4.0,4.0,68,0.00,,---,0.00,VWS V14.00,2013-08-09 02:08:00,
2013-08-08 21:13:00,70.4,59.3,29.91,South,171,2.0,4.0,68,0.00,,---,0.00,VWS V14.00,2013-08-09 02:13:00,
2013-08-08 21:18:00,70.3,59.2,29.91,South,171,2.0,4.0,68,0.00,,---,0.00,VWS V14.00,2013-08-09 02:18:00,
2013-08-08 21:24:00,70.1,59.1,29.91,South,171,4.0,5.0,68,0.00,,---,0.00,VWS V14.00,2013-08-09 02:24:00,
2013-08-08 21:29:00,69.9,59.3,29.91,South,171,0.0,4.0,69,0.00,,---,0.00,VWS V14.00,2013-08-09 02:29:00,
2013-08-08 21:34:00,69.8,59.2,29.91,South,171,3.0,3.0,69,0.00,,---,0.00,VWS V14.00,2013-08-09 02:34:00,
2013-08-08 21:39:00,69.6,59.0,29.91,South,171,1.0,2.0,69,0.00,,---,0.00,VWS V14.00,2013-08-09 02:39:00,
2013-08-08 21:44:00,69.4,59.2,29.91,South,171,2.0,4.0,70,0.00,,---,0.00,VWS V14.00,2013-08-09 02:44:00,
2013-08-08 21:50:00,69.3,59.1,29.91,South,171,3.0,4.0,70,0.00,,---,0.00,VWS V14.00,2013-08-09 02:50:00,
2013-08-08 21:55:00,69.1,58.9,29.91,South,171,2.0,3.0,70,0.00,,---,0.00,VWS V14.00,2013-08-09 02:55:00,
2013-08-08 22:00:00,68.9,59.1,29.91,South,171,3.0,4.0,71,0.00,,---,0.00,VWS V14.00,2013-08-09 03:00:00,
2013-08-08 22:06:00,68.6,58.8,29.91,South,171,1.0,3.0,71,0.00,,---,0.00,VWS V14.00,2013-08-09 03:06:00,
2013-08-08 22:11:00,68.4,59.0,29.91,South,171,0.0,2.0,72,0.00,,---,0.00,VWS V14.00,2013-08-09 03:11:00,
2013-08-08 22:16:00,68.4,59.4,29.91,South,171,0.0,0.0,73,0.00,,---,0.00,VWS V14.00,2013-08-09 03:16:00,
2013-08-08 22:21:00,68.1,59.5,29.91,South,171,0.0,0.0,74,0.00,,---,0.00,VWS V14.00,2013-08-09 03:21:00,
2013-08-08 22:27:00,67.8,59.2,29.91,South,171,0.0,0.0,74,0.00,,---,0.00,VWS V14.00,2013-08-09 03:27:00,
2013-08-08 22:32:00,67.6,59.4,29.91,South,171,0.0,0.0,75,0.00,,---,0.00,VWS V14.00,2013-08-09 03:32:00,
2013-08-08 22:38:00,67.3,59.5,29.91,South,171,0.0,0.0,76,0.00,,---,0.00,VWS V14.00,2013-08-09 03:38:00,
2013-08-08 22:43:00,67.1,59.7,29.91,South,171,0.0,0.0,77,0.00,,---,0.00,VWS V14.00,2013-08-09 03:43:00,
2013-08-08 22:48:00,66.9,59.5,29.91,South,171,0.0,0.0,77,0.00,,---,0.00,VWS V14.00,2013-08-09 03:48:00,
2013-08-08 22:53:00,66.8,59.7,29.91,South,171,2.0,3.0,78,0.00,,---,0.00,VWS V14.00,2013-08-09 03:53:00,
2013-08-08 22:58:00,66.6,59.5,29.91,South,171,2.0,3.0,78,0.00,,---,0.00,VWS V14.00,2013-08-09 03:58:00,
2013-08-08 23:01:00,66.6,59.5,29.91,South,171,2.0,3.0,78,0.00,,---,0.00,VWS V14.00,2013-08-09 04:01:00,
2013-08-08 23:02:00,66.6,59.5,29.91,South,171,3.0,4.0,78,0.00,,---,0.00,VWS V14.00,2013-08-09 04:02:00,
2013-08-08 23:07:00,66.4,59.3,29.91,South,171,2.0,3.0,78,0.00,,---,0.00,VWS V14.00,2013-08-09 04:07:00,
2013-08-08 23:12:00,66.4,59.3,29.92,South,171,1.0,2.0,78,0.00,,---,0.00,VWS V14.00,2013-08-09 04:12:00,
2013-08-08 23:17:00,66.4,59.3,29.92,South,171,0.0,0.0,78,0.00,,---,0.00,VWS V14.00,2013-08-09 04:17:00,
2013-08-08 23:22:00,66.3,59.2,29.92,South,171,0.0,3.0,78,0.00,,---,0.00,VWS V14.00,2013-08-09 04:22:00,
2013-08-08 23:27:00,66.3,59.6,29.92,South,171,3.0,3.0,79,0.00,,---,0.00,VWS V14.00,2013-08-09 04:27:00,
2013-08-08 23:32:00,66.1,59.4,29.92,South,171,0.0,0.0,79,0.00,,---,0.00,VWS V14.00,2013-08-09 04:32:00,
2013-08-08 23:37:00,66.0,59.7,29.92,South,171,0.0,0.0,80,0.00,,---,0.00,VWS V14.00,2013-08-09 04:37:00,
2013-08-08 23:42:00,65.8,59.8,29.93,South,171,0.0,0.0,81,0.00,,---,0.00,VWS V14.00,2013-08-09 04:42:00,
2013-08-08 23:47:00,65.6,59.6,29.93,South,171,0.0,0.0,81,0.00,,---,0.00,VWS V14.00,2013-08-09 04:47:00,
2013-08-08 23:52:00,65.5,59.5,29.93,South,171,0.0,0.0,81,0.00,,---,0.00,VWS V14.00,2013-08-09 04:52:00,
2013-08-08 23:58:00,65.2,59.6,29.93,South,171,0.0,0.0,82,0.00,,---,0.00,VWS V14.00,2013-08-09 04:58:00,